Regional Weather Roundup
Issued by NWS Cleveland, OH

Home | Current Version | Previous Version | Text Only | Print | Product List | Glossary Off
Versions: 1 2 3 4 5 6 7 8 9 10 11 12 13 14 15 16 17 18 19 20 21 22 23 24 25 26 27 28 29 30 31 32 33 34 35 36 37 38 39 40 41 42 43 44 45 46 47 48 49 50

000
ASUS41 KCLE 161502
RWRCLE
OHIO REGIONAL WEATHER ROUNDUP
NATIONAL WEATHER SERVICE CLEVELAND, OH
1100 AM EDT TUE SEP 16 2014

NOTE: "FAIR" INDICATES FEW OR NO CLOUDS BELOW 12,000 FEET WITH NO
SIGNIFICANT WEATHER AND/OR OBSTRUCTIONS TO VISIBILITY.

OHZ001>008-015>018-024>027-034-035-043-044-161600-
   NORTHWEST OHIO

CITY           SKY/WX    TMP DP  RH WIND       PRES   REMARKS
DEFIANCE       MOSUNNY   58  50  75 N6        30.20S
FINDLAY        MOSUNNY   58  49  72 N6        30.17F
TOLEDO EXPRESS MOSUNNY   56  49  77 NW3       30.18S
TOLEDO EXEC    MOSUNNY   59  48  67 N5        30.19R
LIMA           PTSUNNY   56  50  80 N6        30.18S
$$

OHZ009>014-019>023-028>033-038-089-161600-
   NORTHEAST OHIO

CITY           SKY/WX    TMP DP  RH WIND       PRES   REMARKS
CLE-HOPKINS    CLOUDY    59  53  80 NW8       30.17R
CLE-LAKEFRONT  PTSUNNY   59  52  77 N10       30.14R
CUY CO. ARPT   NOT AVBL
LORAIN-ELYRIA  CLOUDY    62  53  72 N7        30.16R
ASHTABULA      CLOUDY    59  50  72 N7        30.15R
AKRON-CANTON   CLOUDY    59  54  83 VRB6      30.14S HAZE
WOOSTER        CLOUDY    59  52  77 N8        30.16S
MANSFIELD      PTSUNNY   57  52  82 NW8       30.16F
YOUNGSTOWN     CLOUDY    58  53  84 N6        30.14R
$$

OHZ042-051>053-060>062-070>072-077>081-161600-
  SOUTHWEST OHIO

CITY           SKY/WX    TMP DP  RH WIND       PRES   REMARKS
CINC-COVINGTON CLOUDY    58  52  80 N10       30.17S
CINC-LUNKEN    CLOUDY    58  53  84 NE9       30.18S
HAMILTON       CLOUDY    59  51  75 VRB6      30.19S
DAYTON         CLOUDY    57  52  83 NE5       30.19S
WRIGHT-PAT AFB CLOUDY    55  50  82 N5        30.17F
DAYTON GENERAL CLOUDY    56  51  84 NE7       30.18S
WILMINGTON     CLOUDY    55  50  83 N8        30.17S
$$

OHZ036-037-039>041-045>050-054>059-063>069-073>076-082>088-161600-
  CENTRAL AND SOUTHEAST OHIO

CITY           SKY/WX    TMP DP  RH WIND       PRES   REMARKS
COLUMBUS       CLOUDY    58  49  72 N6        30.17S
OSU AIRPORT    CLOUDY    56  51  84 NE6       30.17F
BOLTON FIELD   CLOUDY    55  52  88 MISG      30.18F
RICKENBACK AFB NOT AVBL
NEWARK         CLOUDY    57  51  80 NW6       30.16F
MARION         CLOUDY    58  50  75 VRB3      30.17S
LANCASTER      CLOUDY    57  51  80 NE3       30.18S
ZANESVILLE     PTSUNNY   60  50  69 NE6       30.16S
NEW PHILLY     CLOUDY    58  52  80 CALM      30.16S
$$



USA.gov is the U.S. government's official web portal to all federal, state and local government web resources and services.